Location: Newark
(56.9500°N, 24.6667°E)
Time: 22:20:21
(UTC+00:00)

Envisat - Visible Passes

Search period start: 25 March 2019 00:00
Search period end: 04 April 2019 00:00
Orbit: 764 x 766 km, 98.2° (Epoch: 24 March)

Date Brightness Start Highest point End Pass type
(mag) Time Alt. Az. Time Alt. Az. Time Alt. Az.
25 Mar 6.0 18:33:39 10° WSW 18:36:22 14° W 18:39:07 10° NW visible
26 Mar 5.4 17:54:54 10° SSW 17:59:06 26° W 18:03:20 10° NW visible
28 Mar 5.9 18:21:40 10° SW 18:24:59 17° W 18:28:18 10° NW visible
29 Mar 5.1 17:43:18 10° SSW 17:47:46 30° W 17:52:16 10° NNW visible
30 Mar 6.3 18:49:35 10° W 18:50:58 11° W 18:52:21 10° WNW visible
31 Mar 5.8 18:09:52 10° SW 18:13:36 20° W 18:17:22 10° NW visible
01 Apr 4.8 17:31:47 10° SSW 17:36:27 36° W 17:41:09 10° NNW visible
02 Apr 6.0 18:37:06 10° WSW 18:39:32 13° W 18:41:59 10° NW visible
03 Apr 5.5 17:58:09 10° SW 18:02:14 24° W 18:06:21 10° NW visible
